Home > Weather > Murau > Past weeks

Flag for Austria Weather for the Past 2 Weeks in Murau, Styria, Austria

Now
41 °F

Quite cool.


Feels Like: 41 °F
Forecast: 35 / 65 °F
Wind: No wind

Location: Aigen Im Ennstal

Current Time: May 5, 2016 at 3:39:12 AM

Latest Report: May 5, 2016 at 3:00 AM


Visibility: N/A

Pressure: 30.37 "Hg (27.37 "Hg at 848m altitude)

Humidity: 88%

Dew Point: 38 °F

Location of MurauLocation

Historic Weather in Murau — Graph

°F

Murau Temperature Yesterday

Maximum temperature yesterday: 47 °F (at 4:00 PM)
Minimum temperature yesterday: 42 °F (at 11:00 PM)
Average temperature yesterday: 45 °F

High & Low Weather Summary for the Past Weeks

 TemperatureHumidityPressure
High72 °F (Apr 21, 5:00 PM)94% (Apr 21, 2:00 AM)30.46 "Hg (Apr 21, 2:00 AM)
Low26 °F (Apr 29, 7:00 AM)20% (Apr 21, 5:00 PM)29.59 "Hg (Apr 26, 2:00 PM)
Average46 °F64%30.03 "Hg
* Reported Apr 20 2:00 AM — May 5 2:00 AM, Murau, Weather by CustomWeather, © 2016

Note: Actual official high and low records may vary slightly from our data, if they occured in-between our weather recording intervals... More about our weather records

Advertising

Murau Weather History for the Previous 24 Hours

Scroll right to see more
 ConditionsComfort  
Time TempWeatherWind HumidityBarometerVisibility
2:00 AM
Thu, May 5
41 °FLight rain. Overcast.N/A90%30.37 "Hg9 mi
1:00 AM41 °FQuite cool.1 mph89%30.39 "HgN/A
12:00 AM42 °FQuite cool.No wind88%30.39 "HgN/A
11:00 PM
Wed, May 4
42 °FOvercast.N/A83%30.37 "Hg12 mi
10:00 PM43 °FQuite cool.1 mph81%30.37 "HgN/A
9:00 PM44 °FQuite cool.1 mph69%30.35 "HgN/A
8:00 PM45 °FOvercast.N/A67%30.33 "Hg16 mi
7:00 PM47 °FCool.2 mph57%30.32 "HgN/A
6:00 PM47 °FCool.5 mph55%30.31 "HgN/A
5:00 PM47 °FOvercast.N/A59%30.30 "Hg16 mi
4:00 PM47 °FCool.5 mph57%30.31 "HgN/A
3:00 PM47 °FCool.6 mph56%30.32 "HgN/A
2:00 PM46 °FSprinkles. Overcast.6 mph62%30.31 "Hg16 mi
1:00 PM46 °FCool.5 mph66%30.30 "HgN/A
12:00 PM46 °FCool.5 mph68%30.29 "HgN/A
11:00 AM46 °FCool.3 mph68%30.29 "HgN/A
10:00 AM45 °FQuite cool.7 mph71%30.29 "HgN/A
9:00 AM45 °FQuite cool.6 mph68%30.28 "HgN/A
7:00 AM44 °FSprinkles. Overcast.7 mph72%30.24 "Hg9 mi
6:00 AM45 °FQuite cool.7 mph67%30.22 "HgN/A
5:00 AM45 °FOvercast.7 mph68%30.19 "Hg9 mi
4:00 AM44 °FQuite cool.5 mph74%30.19 "HgN/A
3:00 AM44 °FQuite cool.6 mph77%30.18 "HgN/A
Weather by CustomWeather, © 2016

See weather overviewHow to use our weather pages